[[{"header":{"parameterUnit":"m.s-1","parameterCategory":1,"la1":30.2991,"la2":30.254,"lo1":-89.0895,"lo2":-89.0444,"dy":0.0017,"dx":0.0017,"nx":28,"ny":28,"refTime":"2025-04-05T09:00:00:Z","depth":0,"parameterNumber":2,"parameterNumberName":"U-component_of_WINDS"},"data":[0,0,0,0,0,0,0,0,0,0,0,0,0,0,0,0,0,0,0,0,0,0,0,0,0,0,0,0,0,0,0,0,0,0,0,0,0,0,0,0,0,0,0,0,0,0,0,0,0,0,0,0,0,0,0,0,0,0,3.8117,3.8117,0,3.807,3.807,3.8069,3.7974,3.7972,3.797,3.7968,3.7921,3.7922,3.7922,0,0,0,0,0,0,0,0,0,0,0,0,0,3.8128,3.8128,3.8118,3.8117,3.8116,3.807,3.807,3.8069,3.7974,3.7972,3.7969,3.7967,3.7921,3.7922,3.7922,0,0,0,0,0,0,0,0,0,0,0,0,0,3.8107,3.8128,3.8118,3.8063,3.8058,3.807,3.807,3.8069,3.7974,3.7972,3.7969,3.7966,3.7921,3.7922,3.7922,3.7984,0,0,3.7925,3.7925,0,0,0,0,0,0,0,0,3.8108,3.8106,3.8072,3.8067,3.8061,3.8025,3.8056,3.8041,3.7975,3.8006,3.7968,3.7965,3.7958,3.7956,3.7953,3.7982,3.798,3.7925,3.7925,3.7926,3.7926,0,0,0,0,0,0,0,3.8109,3.8108,3.8099,3.8072,3.8065,3.8042,3.8036,3.8053,3.7999,3.8003,3.7996,3.7992,3.7955,3.7953,3.7951,3.7979,3.7925,3.7926,3.7926,3.7926,3.8058,3.8061,0,0,0,0,0,0,3.8119,3.811,3.81,3.8097,3.8078,3.8044,3.8037,3.8039,3.7998,3.7989,3.7994,3.7988,3.7953,3.795,3.7949,3.8019,3.7926,3.7926,3.7927,3.8055,3.8059,3.8062,0,0,0,0,0,0,3.8119,3.8119,3.8102,3.8102,3.8098,3.8047,3.805,3.804,3.8038,3.7992,3.7982,3.8002,3.795,3.7948,3.7976,3.8017,3.7927,3.7927,3.8052,3.8056,3.806,3.8161,0,0,0,0,0,0,3.812,3.8119,3.8142,3.8103,3.8098,3.813,3.8053,3.8041,3.8039,3.803,3.7996,3.7988,3.7948,3.7976,3.7977,3.8016,3.7928,3.8048,3.8054,3.8059,3.8153,3.8168,3.818,0,0,0,0,0,3.8121,3.8172,3.8143,3.8143,3.8125,3.8132,3.813,3.8082,3.8043,3.8065,3.8036,3.7989,3.8012,3.798,3.798,3.802,3.8045,3.8052,3.8059,3.8147,3.8165,3.818,0,0,0,0,0,0,3.8217,3.8166,3.8133,3.8174,3.8158,3.8116,3.8143,3.8102,3.8098,3.8089,3.8031,3.8025,3.8061,3.8043,3.8008,3.8078,3.8021,3.8029,3.8088,3.8105,3.8118,3.8122,3.7929,0,0,0,0,0,3.8243,3.8253,3.8207,3.8247,3.8241,3.8194,3.8195,3.816,3.8142,3.8135,3.8107,3.8092,3.8096,3.8099,3.81,3.8151,3.8142,3.8179,3.8192,3.8203,3.821,3.8237,3.8252,3.8084,3.8084,3.8084,0,0,3.8297,3.827,3.8279,3.8266,3.825,3.8262,3.8189,3.8204,3.8213,3.8137,3.8162,3.8142,3.8121,3.8161,3.8177,3.8147,3.8255,3.8212,3.8221,3.8222,3.8245,3.8261,3.8276,3.8089,3.8088,3.8088,0,0,3.8401,3.8381,3.8412,3.8398,3.8374,3.8342,3.835,3.8315,3.8298,3.8322,3.8266,3.8276,3.8284,3.8271,3.8266,3.8368,3.8324,3.837,3.844,3.8466,3.848,3.8491,3.8528,3.8541,3.8377,3.8377,3.8377,0,3.847,3.8485,3.8434,3.8453,3.8449,3.8382,3.8413,3.8402,3.838,3.838,3.8347,3.8356,3.8337,3.8373,3.8398,3.8396,3.8404,3.8373,3.8482,3.8493,3.8503,3.8537,3.8551,3.8383,3.8382,3.8381,3.8381,0,3.8573,3.8584,3.8613,3.8593,3.8593,3.8618,3.8572,3.8578,3.8543,3.8516,3.8542,3.8517,3.8512,3.8518,3.8485,3.8551,3.8533,3.8492,3.8433,3.8525,3.8556,3.8569,3.8391,3.8389,3.8387,3.8386,0,0,3.8735,3.8687,3.8699,3.8689,3.8659,3.8667,3.8691,3.8686,3.8692,3.868,3.8699,3.8708,3.867,3.8664,3.8629,3.8652,3.8735,3.8608,3.8606,3.8633,3.8807,3.8838,3.8854,3.8707,3.8709,3.8711,3.8809,0,3.8832,3.8868,3.8823,3.8869,3.888,3.8817,3.8837,3.8822,3.8797,3.8803,3.8776,3.8783,3.8732,3.8728,3.8748,3.8721,3.8769,3.8713,3.8724,3.8725,3.8731,3.887,3.8903,3.8997,3.8821,3.8823,3.8824,0,3.895,3.8943,3.8991,3.8958,3.8961,3.898,3.8972,3.8979,3.896,3.8941,3.8936,3.8893,3.8915,3.8859,3.8888,3.8851,3.8853,3.8841,3.8843,3.8842,3.878,3.8873,3.9026,3.904,3.8843,3.8841,3.884,0,3.9064,3.9067,3.9096,3.909,3.9053,3.9068,3.9053,3.9032,3.9032,3.9026,3.9026,3.9023,3.9021,3.902,3.8979,3.8942,3.9014,3.8954,3.8999,3.9001,3.9017,3.9016,3.9172,3.9019,3.9019,3.9018,3.9018,0,3.9177,3.9209,3.9147,3.9165,3.9199,3.9147,3.9183,3.9162,3.9143,3.9157,3.9102,3.9116,3.9061,3.9069,3.9038,3.9068,3.9067,3.9053,3.9044,3.9057,3.9059,3.9058,3.905,3.9022,3.9021,3.9021,3.902,0,3.931,3.927,3.9297,3.926,3.9251,3.9278,3.9247,3.9262,3.9235,3.9252,3.9254,3.921,3.9218,3.9177,3.9177,3.9155,3.9201,3.9181,3.9207,3.9201,3.9249,3.9245,3.9408,3.9428,3.9263,3.9264,3.9266,0,3.9385,3.9407,3.9373,3.9378,3.9366,3.9374,3.9374,3.9325,3.9328,3.9309,3.9328,3.933,3.933,3.9345,3.9314,3.9314,3.9294,3.9351,3.9293,3.9307,3.9295,3.9294,3.9297,3.9363,3.9365,3.9367,3.9368,0,3.9522,3.9501,3.9503,3.9498,3.95,3.9494,3.9485,3.9492,3.9439,3.9445,3.9451,3.9451,3.9451,3.9455,3.9449,3.9435,3.9394,3.9387,3.9397,3.9411,3.9426,3.9419,3.924,3.9383,3.9381,3.938,3.938,3.9379,3.9628,3.9645,3.9624,3.9628,3.9616,3.9609,3.9622,3.9596,3.96,3.9596,3.9567,3.958,3.9562,3.955,3.954,3.955,3.9522,3.9538,3.9541,3.9546,3.9555,3.9425,3.9548,3.9548,3.9547,3.9547,3.9547,0,3.9762,3.9746,3.975,3.9739,3.9743,3.9703,3.969,3.9697,3.9708,3.9695,3.9695,3.9704,3.9708,3.9678,3.9678,3.9691,3.9672,3.9693,3.9692,3.9689,3.9579,3.957,3.9708,3.9708,3.9708,3.9708,3.9708,3.9708,3.9833,3.9861,3.9838,3.986,3.9843,3.9854,3.9851,3.9844,3.9833,3.9845,3.9848,3.9828,3.9808,3.9807,3.9809,3.98,3.9803,3.983,3.9815,3.9713,3.9697,3.9682,3.9673,3.9831,3.9832,3.9925,3.9926,3.9926]},{"header":{"parameterUnit":"m.s-1","parameterCategory":1,"la1":30.2991,"la2":30.254,"lo1":-89.0895,"lo2":-89.0444,"dy":0.0017,"dx":0.0017,"nx":28,"ny":28,"refTime":"2025-04-05T09:00:00:Z","depth":0,"parameterNumber":3,"parameterNumberName":"V-component_of_WINDS"},"data":[0,0,0,0,0,0,0,0,0,0,0,0,0,0,0,0,0,0,0,0,0,0,0,0,0,0,0,0,0,0,0,0,0,0,0,0,0,0,0,0,0,0,0,0,0,0,0,0,0,0,0,0,0,0,0,0,0,0,-5.78,-5.7802,0,-5.7941,-5.7943,-5.7944,-5.7926,-5.7924,-5.7922,-5.792,-5.8059,-5.8065,-5.8071,0,0,0,0,0,0,0,0,0,0,0,0,0,-5.7511,-5.7517,-5.78,-5.7802,-5.7804,-5.7941,-5.7943,-5.7945,-5.7927,-5.7924,-5.7921,-5.7918,-5.8057,-5.8064,-5.8071,0,0,0,0,0,0,0,0,0,0,0,0,0,-5.7643,-5.7518,-5.78,-5.7811,-5.7814,-5.794,-5.7943,-5.7945,-5.7927,-5.7924,-5.792,-5.7917,-5.8055,-5.8063,-5.8072,-5.8195,0,0,-5.8099,-5.8103,0,0,0,0,0,0,0,0,-5.7635,-5.7653,-5.7808,-5.7811,-5.7814,-5.7913,-5.7892,-5.8029,-5.7928,-5.7884,-5.7919,-5.7915,-5.8013,-5.8025,-5.8059,-5.8201,-5.8207,-5.81,-5.8105,-5.8109,-5.8111,0,0,0,0,0,0,0,-5.7626,-5.7647,-5.7856,-5.781,-5.7814,-5.7808,-5.7823,-5.7918,-5.7966,-5.7888,-5.7887,-5.7904,-5.8014,-5.805,-5.8062,-5.8209,-5.8099,-5.8107,-5.8113,-5.8116,-5.8459,-5.8463,0,0,0,0,0,0,-5.7615,-5.764,-5.7851,-5.786,-5.7714,-5.7816,-5.7833,-5.7884,-5.7965,-5.7974,-5.7907,-5.7902,-5.8037,-5.8052,-5.8067,-5.8215,-5.8109,-5.8117,-5.8122,-5.8456,-5.846,-5.8464,0,0,0,0,0,0,-5.7609,-5.7634,-5.7845,-5.775,-5.7776,-5.7825,-5.7883,-5.7889,-5.7925,-5.7979,-5.7987,-5.7935,-5.8035,-5.8054,-5.8163,-5.822,-5.8121,-5.8129,-5.8451,-5.8457,-5.8462,-5.8514,0,0,0,0,0,0,-5.76,-5.7632,-5.768,-5.7751,-5.7781,-5.7941,-5.7886,-5.7894,-5.7941,-5.7937,-5.8008,-5.8017,-5.8034,-5.815,-5.8172,-5.823,-5.8136,-5.8446,-5.8454,-5.8461,-5.8508,-5.8521,-5.8533,0,0,0,0,0,-5.759,-5.7688,-5.7682,-5.7708,-5.7843,-5.7945,-5.7962,-5.7981,-5.7946,-5.7994,-5.8028,-5.8014,-5.8211,-5.8162,-5.8186,-5.8248,-5.8443,-5.8452,-5.846,-5.8502,-5.8518,-5.8532,0,0,0,0,0,0,-5.762,-5.7697,-5.7692,-5.7816,-5.7874,-5.7941,-5.8003,-5.7997,-5.8065,-5.8059,-5.8078,-5.8094,-5.8204,-5.8237,-5.8181,-5.8371,-5.8322,-5.8336,-5.8345,-5.8361,-5.8373,-5.8363,-5.8143,0,0,0,0,0,-5.7642,-5.7719,-5.7782,-5.7885,-5.7915,-5.7954,-5.7999,-5.8009,-5.8069,-5.8093,-5.8135,-5.8193,-5.8268,-5.8316,-5.8388,-5.8512,-5.8527,-5.8567,-5.8579,-5.8589,-5.8601,-5.8669,-5.8687,-5.8493,-5.8493,-5.8493,0,0,-5.7686,-5.7738,-5.7785,-5.7892,-5.7939,-5.8017,-5.7974,-5.8059,-5.8118,-5.8105,-5.8211,-5.8245,-5.831,-5.8428,-5.8481,-5.8458,-5.8658,-5.86,-5.8608,-5.8614,-5.8679,-5.8698,-5.8714,-5.8499,-5.8498,-5.8497,0,0,-5.7807,-5.7854,-5.7945,-5.7993,-5.8064,-5.809,-5.8112,-5.818,-5.8202,-5.831,-5.8302,-5.837,-5.8499,-5.8546,-5.8587,-5.8726,-5.8716,-5.8749,-5.8814,-5.8879,-5.8895,-5.8908,-5.8957,-5.8975,-5.876,-5.8761,-5.8761,0,-5.7852,-5.7972,-5.7992,-5.8079,-5.8126,-5.812,-5.8212,-5.8257,-5.8347,-5.8379,-5.8352,-5.8513,-5.8557,-5.8685,-5.8719,-5.8753,-5.8777,-5.874,-5.8891,-5.8905,-5.8918,-5.8965,-5.8984,-5.8764,-5.8764,-5.8763,-5.8763,0,-5.8025,-5.8108,-5.8173,-5.8262,-5.8316,-5.8405,-5.8437,-5.8489,-5.8495,-5.8522,-5.8631,-5.8684,-5.8766,-5.8797,-5.8802,-5.8926,-5.891,-5.8887,-5.8838,-5.894,-5.8984,-5.9002,-5.8769,-5.8768,-5.8767,-5.8766,0,0,-5.8167,-5.8268,-5.8291,-5.8331,-5.841,-5.8474,-5.8562,-5.8644,-5.8688,-5.8751,-5.8824,-5.8933,-5.8913,-5.8959,-5.897,-5.9028,-5.9134,-5.8998,-5.9,-5.9021,-5.9273,-5.9289,-5.931,-5.9128,-5.9132,-5.9134,-5.9267,0,-5.8296,-5.8453,-5.8474,-5.8613,-5.8689,-5.8685,-5.8762,-5.8817,-5.8846,-5.8914,-5.8945,-5.9022,-5.899,-5.9018,-5.9075,-5.9109,-5.9185,-5.91,-5.9195,-5.9198,-5.9178,-5.9333,-5.9351,-5.9473,-5.9285,-5.9288,-5.929,0,-5.8466,-5.8535,-5.8682,-5.875,-5.8783,-5.8852,-5.8929,-5.8994,-5.9057,-5.9074,-5.9126,-5.9129,-5.9219,-5.9167,-5.929,-5.9232,-5.9272,-5.9295,-5.93,-5.9309,-5.925,-5.9345,-5.9513,-5.9531,-5.9318,-5.9316,-5.9314,0,-5.8555,-5.8685,-5.8789,-5.8824,-5.8906,-5.8955,-5.8991,-5.905,-5.9098,-5.9165,-5.9196,-5.9272,-5.9313,-5.9371,-5.9394,-5.9354,-5.9516,-5.9466,-5.9531,-5.953,-5.9564,-5.9562,-5.974,-5.9591,-5.9591,-5.9591,-5.959,0,-5.8695,-5.8785,-5.883,-5.8895,-5.8995,-5.9018,-5.9116,-5.915,-5.9203,-5.9273,-5.9274,-5.9339,-5.9366,-5.9435,-5.9453,-5.9552,-5.9571,-5.9586,-5.9589,-5.9585,-5.9583,-5.9611,-5.9603,-5.9596,-5.9595,-5.9594,-5.9593,0,-5.8811,-5.8845,-5.8959,-5.9028,-5.9048,-5.9119,-5.9177,-5.9239,-5.9267,-5.9355,-5.9377,-5.9421,-5.9502,-5.9532,-5.963,-5.9642,-5.9757,-5.9754,-5.9736,-5.9737,-5.98,-5.9793,-6.0002,-6.003,-5.9863,-5.9865,-5.9866,0,-5.8898,-5.8968,-5.9045,-5.9093,-5.9131,-5.9208,-5.9257,-5.9282,-5.9333,-5.941,-5.9462,-5.9544,-5.961,-5.974,-5.978,-5.9855,-5.9853,-5.9921,-5.9864,-5.9858,-5.9853,-5.9849,-5.9855,-5.9931,-5.9933,-5.9934,-5.9935,0,-5.9049,-5.9063,-5.9135,-5.9214,-5.9273,-5.9335,-5.9396,-5.9434,-5.9468,-5.9526,-5.961,-5.9662,-5.9763,-5.9843,-5.9921,-5.9956,-5.9951,-5.9953,-5.9972,-5.9968,-5.9955,-5.9962,-5.9764,-5.9948,-5.9947,-5.9946,-5.9945,-5.9945,-5.9153,-5.9215,-5.9279,-5.9359,-5.9407,-5.9464,-5.9526,-5.9562,-5.9633,-5.9719,-5.9729,-5.9819,-5.988,-5.9983,-6.0023,-6.0093,-6.0074,-6.0101,-6.0108,-6.0114,-6.0119,-5.9945,-6.0107,-6.0106,-6.0106,-6.0106,-6.0106,0,-5.9304,-5.9345,-5.9419,-5.9504,-5.9567,-5.9559,-5.9626,-5.9678,-5.9758,-5.9816,-5.9882,-5.9978,-6.0057,-6.0103,-6.0181,-6.0228,-6.0228,-6.0247,-6.0244,-6.0252,-6.0131,-6.0107,-6.0246,-6.0246,-6.0246,-6.0246,-6.0246,-6.0246,-5.9389,-5.9493,-5.9514,-5.9641,-5.9681,-5.9771,-5.981,-5.9862,-5.9908,-6.0016,-6.0082,-6.0112,-6.0165,-6.0247,-6.0318,-6.0329,-6.0357,-6.0379,-6.0389,-6.0275,-6.026,-6.0246,-6.0224,-6.0385,-6.0386,-6.0503,-6.0504,-6.0505]}]]